Time,TemperatureF,DewpointF,PressureIn,WindDirection,WindDirectionDegrees,WindSpeedMPH,WindSpeedGustMPH,Humidity,HourlyPrecipIn,Conditions,Clouds,dailyrainin,SoftwareType,DateUTC
2013-07-11 00:00:00,52.0,-99.9,-100.00,North,-999,-999.0,-999.0,-999,-99.99,,,-99.99,,2013-07-11 07:00:00,
2013-07-11 01:00:00,51.0,-99.9,-100.00,North,-999,-999.0,-999.0,-999,-99.99,,,-99.99,,2013-07-11 08:00:00,
2013-07-11 02:00:00,51.0,-99.9,-100.00,North,-999,-999.0,-999.0,-999,-99.99,,,-99.99,,2013-07-11 09:00:00,
2013-07-11 02:53:00,51.0,-99.9,-100.00,North,-999,-999.0,-999.0,-999,-99.99,,,-99.99,,2013-07-11 09:53:00,
2013-07-11 03:00:00,49.0,-99.9,-100.00,North,-999,-999.0,-999.0,-999,-99.99,,,-99.99,,2013-07-11 10:00:00,
2013-07-11 04:00:00,50.0,-99.9,-100.00,North,-999,-999.0,-999.0,-999,-99.99,,,-99.99,,2013-07-11 11:00:00,
2013-07-11 05:00:00,49.0,-99.9,-100.00,North,-999,-999.0,-999.0,-999,-99.99,,,-99.99,,2013-07-11 12:00:00,
2013-07-11 05:58:00,49.0,-99.9,-100.00,North,-999,-999.0,-999.0,-999,-99.99,,,-99.99,,2013-07-11 12:58:00,
2013-07-11 06:00:00,49.0,-99.9,-100.00,North,-999,-999.0,-999.0,-999,-99.99,,,-99.99,,2013-07-11 13:00:00,
2013-07-11 07:00:00,49.0,-99.9,-100.00,North,-999,-999.0,-999.0,-999,-99.99,,,-99.99,,2013-07-11 14:00:00,
2013-07-11 08:00:00,50.0,-99.9,-100.00,North,-999,-999.0,-999.0,-999,-99.99,,,-99.99,,2013-07-11 15:00:00,
2013-07-11 08:49:00,50.0,-99.9,-100.00,North,-999,-999.0,-999.0,-999,-99.99,,,-99.99,,2013-07-11 15:49:00,
2013-07-11 09:00:00,51.0,-99.9,-100.00,North,-999,-999.0,-999.0,-999,-99.99,,,-99.99,,2013-07-11 16:00:00,
2013-07-11 09:57:00,51.0,-99.9,-100.00,North,-999,-999.0,-999.0,-999,-99.99,,,-99.99,,2013-07-11 16:57:00,
2013-07-11 10:00:00,53.0,-99.9,-100.00,North,-999,-999.0,-999.0,-999,-99.99,,,-99.99,,2013-07-11 17:00:00,
2013-07-11 11:00:00,57.0,-99.9,-100.00,North,-999,-999.0,-999.0,-999,-99.99,,,-99.99,,2013-07-11 18:00:00,
2013-07-11 11:58:00,57.0,-99.9,-100.00,North,-999,-999.0,-999.0,-999,-99.99,,,-99.99,,2013-07-11 18:58:00,
2013-07-11 12:00:00,58.0,-99.9,-100.00,North,-999,-999.0,-999.0,-999,-99.99,,,1.02,,2013-07-11 19:00:00,
2013-07-11 13:00:00,60.0,-99.9,-100.00,North,-999,-999.0,-999.0,-999,-99.99,,,0.01,,2013-07-11 20:00:00,
2013-07-11 13:52:00,60.0,-99.9,-100.00,North,-999,-999.0,-999.0,-999,-99.99,,,0.01,,2013-07-11 20:52:00,
2013-07-11 14:00:00,60.0,-99.9,-100.00,North,-999,-999.0,-999.0,-999,-99.99,,,-99.99,,2013-07-11 21:00:00,
2013-07-11 15:00:00,59.0,-99.9,-100.00,North,-999,-999.0,-999.0,-999,-99.99,,,1.24,,2013-07-11 22:00:00,
2013-07-11 15:51:00,60.0,-99.9,-100.00,North,-999,-999.0,-999.0,-999,-99.99,,,1.24,,2013-07-11 22:51:00,
2013-07-11 15:57:00,60.0,-99.9,-100.00,North,-999,-999.0,-999.0,-999,-99.99,,,1.24,,2013-07-11 22:57:00,
2013-07-11 16:00:00,59.0,-99.9,-100.00,North,-999,-999.0,-999.0,-999,-99.99,,,1.23,,2013-07-11 23:00:00,
2013-07-11 17:00:00,59.0,-99.9,-100.00,North,-999,-999.0,-999.0,-999,-99.99,,,-99.99,,2013-07-12 00:00:00,
2013-07-11 18:00:00,56.0,-99.9,-100.00,North,-999,-999.0,-999.0,-999,-99.99,,,1.23,,2013-07-12 01:00:00,
2013-07-11 18:57:00,56.0,-99.9,-100.00,North,-999,-999.0,-999.0,-999,-99.99,,,1.23,,2013-07-12 01:57:00,
2013-07-11 19:00:00,54.0,-99.9,-100.00,North,-999,-999.0,-999.0,-999,-99.99,,,1.24,,2013-07-12 02:00:00,
2013-07-11 20:00:00,50.0,-99.9,-100.00,North,-999,-999.0,-999.0,-999,-99.99,,,1.23,,2013-07-12 03:00:00,
2013-07-11 21:00:00,48.0,-99.9,-100.00,North,-999,-999.0,-999.0,-999,-99.99,,,1.23,,2013-07-12 04:00:00,
2013-07-11 21:53:00,48.0,-99.9,-100.00,North,-999,-999.0,-999.0,-999,-99.99,,,1.23,,2013-07-12 04:53:00,
2013-07-11 22:00:00,48.0,-99.9,-100.00,North,-999,-999.0,-999.0,-999,-99.99,,,1.23,,2013-07-12 05:00:00,
2013-07-11 22:53:00,48.0,-99.9,-100.00,North,-999,-999.0,-999.0,-999,-99.99,,,1.23,,2013-07-12 05:53:00,
2013-07-11 23:00:00,46.0,-99.9,-100.00,North,-999,-999.0,-999.0,-999,-99.99,,,1.24,,2013-07-12 06:00:00,
2013-07-11 23:52:00,46.0,-99.9,-100.00,North,-999,-999.0,-999.0,-999,-99.99,,,1.24,,2013-07-12 06:52:00,